Location: Góry Miechowskie
(50.3599°N, 20.1803°E)
Time: 22:28:07
(UTC+00:00)

ADEOS II - Visible Passes

Search period start: 13 September 2024 00:00
Search period end: 23 September 2024 00:00
Orbit: 795 x 798 km, 98.7° (Epoch: 12 September)

Date Brightness Start Highest point End Pass type
(mag) Time Alt. Az. Time Alt. Az. Time Alt. Az.
13 Sep 2.4 00:53:43 10° NNE 00:58:53 57° E 00:59:22 54° SE visible
13 Sep 3.2 02:33:52 10° N 02:38:11 26° WNW 02:40:13 21° W visible
14 Sep 3.3 00:26:21 10° NNE 00:31:07 34° E 00:31:18 34° E visible
14 Sep 2.6 02:05:54 10° N 02:10:47 41° WNW 02:12:09 34° W visible
14 Sep 4.0 23:59:17 10° NE 00:03:13 21° E 00:03:15 21° E visible
15 Sep 2.0 01:38:04 10° N 01:43:17 66° WNW 01:44:06 57° WSW visible
15 Sep 4.0 03:19:28 10° NNW 03:21:58 14° NW 03:24:28 10° W visible
15 Sep 4.6 23:33:02 10° ENE 23:35:11 12° E 23:35:11 12° E visible
16 Sep 2.0 01:10:25 10° NNE 01:15:41 77° ESE 01:16:02 73° SE visible
16 Sep 3.5 02:50:57 10° N 02:54:44 21° NW 02:56:53 16° W visible
17 Sep 2.8 00:42:54 10° NNE 00:47:58 46° E 00:47:58 46° E visible
17 Sep 3.0 02:22:49 10° N 02:27:24 31° WNW 02:28:49 27° W visible
18 Sep 3.6 00:15:37 10° NE 00:19:53 28° E 00:19:53 28° E visible
18 Sep 2.3 01:54:54 10° N 01:59:58 49° WNW 02:00:44 46° W visible
18 Sep 4.1 03:37:31 10° NW 03:38:24 10° NW 03:39:17 10° WNW visible
18 Sep 4.3 23:48:46 10° NE 23:51:48 17° E 23:51:48 17° E visible
19 Sep 1.9 01:27:08 10° NNE 01:32:24 80° WNW 01:32:39 77° WSW visible
19 Sep 3.8 03:08:07 10° NNW 03:11:14 16° NW 03:13:31 12° W visible
20 Sep 2.3 00:59:30 10° NNE 01:04:34 62° E 01:04:34 62° E visible
20 Sep 3.3 02:39:48 10° N 02:43:57 24° WNW 02:45:26 21° W visible
21 Sep 3.2 00:32:04 10° NNE 00:36:29 37° E 00:36:29 37° E visible
21 Sep 2.7 02:11:45 10° N 02:16:33 37° WNW 02:17:20 35° W visible
22 Sep 4.0 00:04:55 10° NE 00:08:24 23° E 00:08:24 23° E visible
22 Sep 2.1 01:43:53 10° N 01:49:04 60° WNW 01:49:14 60° W visible
22 Sep 4.0 03:25:32 10° NNW 03:27:39 12° NW 03:29:46 10° WNW visible
22 Sep 4.6 23:38:23 10° NE 23:40:18 13° ENE 23:40:18 13° ENE visible
